Weather History for CYHE - April, 2013

Change the Weather History Date:

Saturday, April 6, 2013

  Actual Average Record
Temperature  
Mean Temperature 48 °F -  
Max Temperature 52 °F 59 °F 71 °F (2007)
Min Temperature 42 °F 41 °F 32 °F (1999)
Degree Days  
Heating Degree Days 18    
Moisture  
Dew Point 44 °F    
Average Humidity 90    
Maximum Humidity 100    
Minimum Humidity 62    
Precipitation  
Precipitation 0.79 in 0.16 in - ()
Sea Level Pressure  
Sea Level Pressure 29.78 in    
Wind  
Wind Speed 7 mph ()    
Max Wind Speed 32 mph    
Max Gust Speed 46 mph    
Visibility 7.7 miles    
Events Rain    
Averages and records for this station are not official NWS values.
T = Trace of Precipitation, MM = Missing Value Source: Averaged Metar Reports

Daily Weather History Graph

Daily Weather History Graph

Search for Another Location

Airport or City:

Trip Planner

Search our weather history database for the weather conditions in past years. The results will help you decide how hot, cold, wet, or windy it might be!

Date:

Astronomy

Apr. 06, 2013 Rise Set
Actual Time 6:31 AM PDT 7:45 PM PDT
Civil Twilight 5:59 AM PDT 8:18 PM PDT
Nautical Twilight 5:19 AM PDT 8:58 PM PDT
Astronomical Twilight 4:37 AM PDT 9:41 PM PDT
Moon 4:37 AM PDT (4/6) 4:03 PM PDT (4/6)
Length of Visible Light 14h 19m
Length of Day
13h 13m
Waning Crescent, 14% of the Moon is Illuminated
Apr 6
Waning Crescent
Apr 10
New
Apr 18
First Quarter
Apr 25
Full
May 2
Last Quarter

Hourly Weather History & Observations

Time (PDT) Temp. Windchill Dew Point Humidity Pressure Visibility Wind Dir Wind Speed Gust Speed Precip Events Conditions
12:00 AM 48.2 °F - 46.4 °F 93% 29.76 in 7.0 mi ESE 4.6 mph - N/A Rain Light Rain
12:04 AM 48.2 °F - 46.4 °F 93% 29.75 in 7.0 mi ESE 5.8 mph - N/A Rain Light Rain
12:19 AM 48.2 °F - 46.4 °F 93% 29.75 in 9.0 mi ESE 8.1 mph - N/A Rain Light Rain
12:25 AM 48.2 °F - 46.4 °F 93% 29.75 in 9.0 mi ESE 6.9 mph - N/A Rain Light Rain
12:34 AM 48.2 °F - 46.4 °F 93% 29.75 in 9.0 mi ESE 6.9 mph - N/A Rain Light Rain
12:41 AM 48.2 °F - 46.4 °F 93% 29.75 in 9.0 mi ESE 5.8 mph - N/A Rain Light Rain
12:57 AM 48.2 °F - 46.4 °F 93% 29.75 in 9.0 mi Variable 2.3 mph - N/A Rain Light Rain
1:00 AM 48.2 °F - 46.4 °F 93% 29.75 in 9.0 mi Calm Calm - N/A Rain Light Rain
1:15 AM 48.2 °F - 46.4 °F 93% 29.74 in 9.0 mi ESE 4.6 mph - N/A Rain Light Rain
1:16 AM 48.2 °F - 46.4 °F 93% 29.74 in 9.0 mi ESE 4.6 mph - N/A Rain Light Rain
1:18 AM 48.2 °F - 46.4 °F 93% 29.74 in 9.0 mi ESE 4.6 mph - N/A Rain Light Rain
1:28 AM 46.4 °F 44.3 °F 46.4 °F 100% 29.73 in 9.0 mi East 4.6 mph - N/A Rain Light Rain
1:33 AM 46.4 °F 44.3 °F 46.4 °F 100% 29.73 in 9.0 mi East 4.6 mph - N/A Rain Light Rain
1:35 AM 46.4 °F 43.5 °F 46.4 °F 100% 29.72 in 9.0 mi East 5.8 mph - N/A Rain Light Rain
1:39 AM 46.4 °F 43.5 °F 46.4 °F 100% 29.72 in 9.0 mi East 5.8 mph - N/A   Overcast
1:56 AM 46.4 °F 42.4 °F 46.4 °F 100% 29.71 in 9.0 mi ESE 8.1 mph - N/A   Overcast
2:00 AM 47 °F - 47 °F 98% 29.70 in - East 8.1 mph - -  
2:00 AM 46.4 °F 42.9 °F 46.4 °F 100% 29.70 in 9.0 mi East 6.9 mph - N/A   Overcast
2:03 AM 46.4 °F 42.4 °F 46.4 °F 100% 29.70 in 9.0 mi East 8.1 mph - N/A   Overcast
2:10 AM 46.4 °F 42.4 °F 46.4 °F 100% 29.70 in 9.0 mi ESE 8.1 mph - N/A   Overcast
2:22 AM 46.4 °F 41.9 °F 46.4 °F 100% 29.69 in 9.0 mi East 9.2 mph - N/A   Overcast
2:41 AM 46.4 °F 42.4 °F 44.6 °F 93% 29.69 in 9.0 mi East 8.1 mph - N/A Rain Light Rain
3:00 AM 46.4 °F 41.5 °F 46.4 °F 100% 29.69 in 9.0 mi ESE 10.4 mph - N/A Rain Light Rain
4:00 AM 46.4 °F 44.3 °F 44.6 °F 93% 29.68 in 9.0 mi East 4.6 mph - N/A Rain Light Rain
4:04 AM 46.4 °F 45.2 °F 44.6 °F 93% 29.68 in 9.0 mi East 3.5 mph - N/A   Overcast
4:32 AM 46.4 °F - 44.6 °F 93% 29.69 in 9.0 mi SE 2.3 mph - N/A Rain Light Rain
4:43 AM 46.4 °F - 44.6 °F 93% 29.69 in 9.0 mi Variable 2.3 mph - N/A Rain Light Rain
4:57 AM 46.4 °F - 44.6 °F 93% 29.69 in 9.0 mi Calm Calm - N/A   Overcast
5:00 AM 46 °F - 45 °F 96% 29.69 in - NE 1.2 mph - -  
5:00 AM 46.4 °F - 44.6 °F 93% 29.69 in 8.0 mi Variable 2.3 mph - N/A   Overcast
5:01 AM 46.4 °F - 44.6 °F 93% 29.69 in 8.0 mi Variable 2.3 mph - N/A   Overcast
5:03 AM 46.4 °F - 44.6 °F 93% 29.69 in 8.0 mi Calm Calm - N/A   Overcast
5:17 AM 46.4 °F 44.3 °F 44.6 °F 93% 29.69 in 9.0 mi SW 4.6 mph - N/A Rain Light Rain
5:27 AM 46.4 °F - 44.6 °F 93% 29.69 in 9.0 mi Calm Calm - N/A Rain Light Rain
6:00 AM 46.4 °F 42.4 °F 44.6 °F 93% 29.70 in 6.0 mi SSW 8.1 mph - N/A Rain Rain
6:01 AM 46.4 °F 42.4 °F 44.6 °F 93% 29.70 in 5.0 mi SW 8.1 mph - N/A Rain Rain
6:40 AM 46.4 °F 41.1 °F 46.4 °F 100% 29.70 in 6.0 mi West 11.5 mph - N/A Rain Light Rain
6:53 AM 46.4 °F 44.3 °F 46.4 °F 100% 29.71 in 9.0 mi WSW 4.6 mph - N/A Rain Light Rain
7:00 AM 46.4 °F 42.9 °F 46.4 °F 100% 29.71 in 9.0 mi WSW 6.9 mph - N/A Rain Rain
7:18 AM 46.4 °F 39.2 °F 44.6 °F 93% 29.73 in 8.0 mi West 18.4 mph 29.9 mph N/A Rain Light Rain
7:20 AM 46.4 °F 39.2 °F 42.8 °F 87% 29.73 in 4.0 mi West 18.4 mph 33.4 mph N/A Rain Heavy Rain
7:22 AM 46.4 °F 36.9 °F 42.8 °F 87% 29.73 in 3.0 mi West 32.2 mph 42.6 mph N/A Rain Heavy Rain
7:24 AM 46.4 °F 36.9 °F 41.0 °F 81% 29.74 in 2.2 mi West 32.2 mph 46.0 mph N/A Rain Heavy Rain
7:28 AM 46.4 °F 36.9 °F 41.0 °F 81% 29.73 in 1.8 mi West 32.2 mph 46.0 mph N/A Rain Heavy Rain
7:50 AM 46.4 °F 38.3 °F 41.0 °F 81% 29.76 in 3.0 mi West 23.0 mph 34.5 mph N/A Rain Heavy Rain
7:59 AM 44.6 °F 36.9 °F 41.0 °F 87% 29.77 in 3.0 mi WNW 18.4 mph 28.8 mph N/A Rain Heavy Rain
8:00 AM 46 °F - 43 °F 84% 29.78 in - West 16.1 mph - -  
8:00 AM 44.6 °F 36.9 °F 41.0 °F 87% 29.77 in 3.0 mi WNW 18.4 mph 28.8 mph N/A Rain Heavy Rain
8:16 AM 44.6 °F 38.1 °F 41.0 °F 87% 29.77 in 4.0 mi West 13.8 mph 24.2 mph N/A Rain Rain
8:25 AM 44.6 °F 39.7 °F 41.0 °F 87% 29.78 in 6.0 mi West 9.2 mph 20.7 mph N/A Rain Rain
8:30 AM 44.6 °F 40.7 °F 41.0 °F 87% 29.78 in 6.0 mi SW 6.9 mph - N/A Rain Heavy Rain
8:32 AM 44.6 °F 40.2 °F 42.8 °F 93% 29.78 in 5.0 mi SSW 8.1 mph - N/A Rain Heavy Rain
8:35 AM 44.6 °F 39.7 °F 42.8 °F 93% 29.78 in 5.0 mi SSW 9.2 mph - N/A Rain Rain
8:40 AM 44.6 °F 39.2 °F 42.8 °F 93% 29.79 in 6.0 mi SSW 10.4 mph - N/A Rain Rain
8:50 AM 44.6 °F 42.2 °F 41.0 °F 87% 29.80 in 6.0 mi SW 4.6 mph - N/A Rain Rain
8:56 AM 44.6 °F 41.4 °F 42.8 °F 93% 29.80 in 5.0 mi WSW 5.8 mph - N/A Rain Rain
9:00 AM 44.6 °F 39.7 °F 42.8 °F 93% 29.80 in 5.0 mi WSW 9.2 mph - N/A Rain Rain
9:15 AM 44.6 °F 40.7 °F 42.8 °F 93% 29.80 in 6.0 mi West 6.9 mph - N/A Rain Light Rain
9:38 AM 44.6 °F 42.2 °F 42.8 °F 93% 29.81 in 7.0 mi WSW 4.6 mph - N/A Rain Rain
9:54 AM 44.6 °F 40.2 °F 41.0 °F 87% 29.82 in 7.0 mi SW 8.1 mph - N/A Rain Rain
10:00 AM 44.6 °F 40.2 °F 42.8 °F 93% 29.82 in 7.0 mi SW 8.1 mph - N/A Rain Light Rain
11:00 AM 46 °F - 44 °F 91% 29.85 in - SW 4.6 mph - -  
11:00 AM 46.4 °F 43.5 °F 42.8 °F 87% 29.84 in 9.0 mi SW 5.8 mph - N/A Rain Light Rain
11:34 AM 48.2 °F - 44.6 °F 87% 29.86 in 9.0 mi SSW 8.1 mph 18.4 mph N/A   Overcast
12:00 PM 48.2 °F - 42.8 °F 82% 29.86 in 9.0 mi South 10.4 mph - N/A   Mostly Cloudy
12:05 PM 48.2 °F - 42.8 °F 82% 29.86 in 9.0 mi SW 5.8 mph - N/A Rain Light Rain
1:00 PM 46.4 °F 42.4 °F 41.0 °F 81% 29.89 in 9.0 mi WSW 8.1 mph - N/A Rain Light Rain
1:02 PM 46.4 °F 42.9 °F 41.0 °F 81% 29.89 in 9.0 mi WSW 6.9 mph - N/A   Mostly Cloudy
2:00 PM 51 °F - 44 °F 70% 29.88 in - SW 6.9 mph - -  
2:00 PM 51.8 °F - 39.2 °F 62% 29.87 in 9.0 mi WNW 4.6 mph - N/A   Mostly Cloudy
2:50 PM 50.0 °F - 42.8 °F 76% 29.87 in 9.0 mi WSW 9.2 mph - N/A Rain Light Rain
3:00 PM 48.2 °F - 42.8 °F 82% 29.88 in 9.0 mi West 6.9 mph - N/A Rain Light Rain
3:15 PM 50.0 °F - 42.8 °F 76% 29.87 in 9.0 mi WSW 8.1 mph - N/A   Mostly Cloudy
3:36 PM 48.2 °F - 42.8 °F 82% 29.87 in 9.0 mi WSW 9.2 mph - N/A Rain Light Rain
4:00 PM 48.2 °F - 42.8 °F 82% 29.86 in 9.0 mi West 6.9 mph - N/A Rain Light Rain
4:28 PM 50.0 °F - 44.6 °F 82% 29.86 in 9.0 mi WSW 9.2 mph - N/A   Mostly Cloudy
4:51 PM 48.2 °F - 44.6 °F 87% 29.86 in 9.0 mi WSW 6.9 mph - N/A Rain Light Rain
5:00 PM 50 °F - 46 °F 79% 29.86 in - SW 6.9 mph - -  
5:00 PM 50.0 °F - 44.6 °F 82% 29.86 in 9.0 mi WSW 6.9 mph - N/A   Mostly Cloudy
6:00 PM 51.8 °F - 46.4 °F 82% 29.86 in 9.0 mi WSW 5.8 mph - N/A   Mostly Cloudy
6:41 PM 50.0 °F - 44.6 °F 82% 29.86 in 9.0 mi Calm Calm - N/A Rain Light Rain
7:00 PM 48.2 °F - 41.0 °F 76% 29.86 in 9.0 mi SSW 4.6 mph - N/A Rain Light Rain
7:27 PM 48.2 °F - 41.0 °F 76% 29.87 in 8.0 mi West 4.6 mph - N/A   Overcast
7:45 PM 46.4 °F 44.3 °F 41.0 °F 81% 29.87 in 9.0 mi WSW 4.6 mph - N/A Rain Light Rain
8:00 PM 45 °F - 42 °F 86% 29.87 in - SSE 3.5 mph - -  
8:00 PM 44.6 °F - 42.8 °F 93% 29.87 in 9.0 mi Variable 2.3 mph - N/A Rain Light Rain
8:39 PM 44.6 °F 40.7 °F 42.8 °F 93% 29.88 in 5.0 mi WSW 6.9 mph - N/A Rain Light Rain
8:52 PM 44.6 °F 40.7 °F 42.8 °F 93% 29.88 in 6.0 mi WSW 6.9 mph - N/A Rain Light Rain
10:00 PM 44.6 °F 40.2 °F 42.8 °F 93% 29.88 in 9.0 mi West 8.1 mph - N/A Rain Light Rain
11:00 PM 43 °F - 41 °F 92% 29.87 in - West 6.9 mph - -  
11:00 PM 42.8 °F 38.0 °F 41.0 °F 93% 29.87 in 9.0 mi West 8.1 mph - N/A Rain Light Rain